• In Czech Republic
  • List of Countries
  • For 7 days
  • Water Temperature
  • Satellite Maps
  • Weather Map
  • Weather Widgets
  • user-avatar
    Login

    Hourly Weather Shibam

    Today, 24 June, Sunday

    Time Temperature Precipitation Wind Pressure Humidity
    00:00 +21°C° 0 mm 1 mps 561 mmHg 36%
    01:00 +21°C° 0 mm 1 mps 560 mmHg 34%
    02:00 +19°C° 0 mm 2 mps 560 mmHg 32%
    03:00 +19°C° 0 mm 2 mps 560 mmHg 25%
    04:00 +18°C° 0 mm 2 mps 560 mmHg 26%
    05:00 +18°C° 0 mm 2 mps 560 mmHg 27%
    06:00 +17°C° 0 mm 2 mps 560 mmHg 28%
    07:00 +19°C° 0 mm 3 mps 561 mmHg 25%
    08:00 +21°C° 0 mm 3 mps 562 mmHg 22%
    09:00 +24°C° 0 mm 3 mps 563 mmHg 19%
    10:00 +25°C° 0 mm 3 mps 563 mmHg 17%
    11:00 +25°C° 0 mm 4 mps 563 mmHg 15%
    12:00 +26°C° 0 mm 4 mps 564 mmHg 14%
    13:00 +26°C° 0 mm 4 mps 563 mmHg 15%
    14:00 +27°C° 0 mm 4 mps 563 mmHg 17%
    15:00 +26°C° 0 mm 4 mps 563 mmHg 20%
    16:00 +25°C° 0.2 mm 4 mps 562 mmHg 23%
    17:00 +25°C° 0.2 mm 4 mps 562 mmHg 27%
    18:00 +23°C° 0.2 mm 4 mps 562 mmHg 30%
    19:00 +22°C° 0.2 mm 3 mps 562 mmHg 33%
    20:00 +22°C° 0.2 mm 3 mps 562 mmHg 36%
    21:00 +21°C° 0.2 mm 2 mps 562 mmHg 39%
    22:00 +21°C° 0 mm 2 mps 561 mmHg 39%
    23:00 +21°C° 0 mm 1 mps 561 mmHg 40%

    Tomorrow, 25 June, Monday

    Time Temperature Precipitation Wind Pressure Humidity
    00:00 +21°C° 0 mm 1 mps 561 mmHg 41%
    01:00 +21°C° 0 mm 1 mps 561 mmHg 40%
    02:00 +20°C° 0 mm 1 mps 560 mmHg 40%
    03:00 +20°C° 0 mm 1 mps 560 mmHg 39%
    04:00 +20°C° 0 mm 1 mps 560 mmHg 38%
    05:00 +20°C° 0 mm 1 mps 560 mmHg 36%
    06:00 +20°C° 0 mm 1 mps 560 mmHg 35%
    07:00 +20°C° 0 mm 2 mps 561 mmHg 32%
    08:00 +21°C° 0 mm 3 mps 562 mmHg 30%
    09:00 +22°C° 0 mm 4 mps 563 mmHg 27%
    10:00 +23°C° 0 mm 4 mps 563 mmHg 26%
    11:00 +25°C° 0 mm 4 mps 563 mmHg 25%
    12:00 +26°C° 0 mm 4 mps 563 mmHg 24%
    13:00 +26°C° 0.3 mm 4 mps 563 mmHg 26%
    14:00 +25°C° 0.3 mm 4 mps 563 mmHg 28%
    15:00 +25°C° 0.3 mm 4 mps 562 mmHg 30%
    16:00 +23°C° 0.6 mm 4 mps 562 mmHg 33%
    17:00 +22°C° 0.6 mm 3 mps 561 mmHg 36%
    18:00 +22°C° 0.6 mm 3 mps 561 mmHg 39%
    19:00 +21°C° 0.1 mm 2 mps 561 mmHg 42%
    20:00 +21°C° 0.1 mm 2 mps 561 mmHg 45%
    21:00 +20°C° 0.1 mm 2 mps 561 mmHg 47%
    22:00 +21°C° 0 mm 1 mps 561 mmHg 48%
    23:00 +21°C° 0 mm 1 mps 561 mmHg 49%

    Day after tomorrow, 26 June, Tuesday

    Time Temperature Precipitation Wind Pressure Humidity
    00:00 +20°C° 0 mm 1 mps 561 mmHg 50%
    01:00 +20°C° 0 mm 1 mps 560 mmHg 50%
    02:00 +19°C° 0 mm 1 mps 560 mmHg 51%
    03:00 +19°C° 0 mm 1 mps 559 mmHg 51%
    04:00 +19°C° 0 mm 1 mps 559 mmHg 51%
    05:00 +17°C° 0 mm 0 mps 559 mmHg 50%
    06:00 +16°C° 0 mm 0 mps 559 mmHg 49%
    07:00 +20°C° 0 mm 1 mps 560 mmHg 44%
    08:00 +21°C° 0 mm 1 mps 561 mmHg 38%
    09:00 +22°C° 0 mm 1 mps 562 mmHg 32%
    10:00 +23°C° 0 mm 1 mps 563 mmHg 30%
    11:00 +24°C° 0 mm 2 mps 563 mmHg 28%
    12:00 +25°C° 0 mm 2 mps 563 mmHg 25%
    13:00 +25°C° 0 mm 2 mps 563 mmHg 27%
    14:00 +25°C° 0 mm 3 mps 562 mmHg 29%
    15:00 +25°C° 0 mm 3 mps 562 mmHg 31%
    16:00 +24°C° 0.3 mm 3 mps 561 mmHg 33%
    17:00 +22°C° 0.3 mm 3 mps 561 mmHg 35%
    18:00 +22°C° 0.3 mm 3 mps 561 mmHg 38%
    19:00 +21°C° 0.1 mm 3 mps 561 mmHg 42%
    20:00 +20°C° 0.1 mm 2 mps 561 mmHg 46%
    21:00 +20°C° 0.1 mm 2 mps 561 mmHg 50%
    22:00 +19°C° 0.2 mm 2 mps 561 mmHg 50%
    23:00 +19°C° 0.2 mm 2 mps 561 mmHg 51%

    27 June, Wednesday

    Time Temperature Precipitation Wind Pressure Humidity
    00:00 +20°C° 0.2 mm 1 mps 561 mmHg 52%
    01:00 +20°C° 0 mm 1 mps 560 mmHg 52%
    02:00 +19°C° 0 mm 1 mps 560 mmHg 53%
    03:00 +19°C° 0 mm 1 mps 559 mmHg 54%
    04:00 +19°C° 0 mm 1 mps 560 mmHg 54%
    05:00 +19°C° 0 mm 1 mps 560 mmHg 54%
    06:00 +18°C° 0 mm 1 mps 560 mmHg 54%
    07:00 +19°C° 0 mm 2 mps 561 mmHg 47%
    08:00 +20°C° 0 mm 2 mps 562 mmHg 41%
    09:00 +21°C° 0 mm 3 mps 562 mmHg 34%
    10:00 +22°C° 0 mm 3 mps 563 mmHg 31%
    11:00 +24°C° 0 mm 3 mps 563 mmHg 28%
    12:00 +25°C° 0 mm 3 mps 563 mmHg 25%
    13:00 +24°C° 0.1 mm 3 mps 562 mmHg 27%
    14:00 +24°C° 0.1 mm 3 mps 562 mmHg 28%
    15:00 +24°C° 0.1 mm 3 mps 561 mmHg 29%
    16:00 +24°C° 0 mm 3 mps 561 mmHg 30%
    17:00 +22°C° 0 mm 3 mps 561 mmHg 31%
    18:00 +22°C° 0 mm 3 mps 561 mmHg 33%
    19:00 +21°C° 0 mm 2 mps 561 mmHg 36%
    20:00 +21°C° 0 mm 2 mps 561 mmHg 39%
    21:00 +21°C° 0 mm 1 mps 561 mmHg 42%
    22:00 +21°C° 0 mm 1 mps 561 mmHg 43%
    23:00 +20°C° 0 mm 1 mps 560 mmHg 45%

    28 June, Thursday

    Time Temperature Precipitation Wind Pressure Humidity
    00:00 +20°C° 0 mm 1 mps 560 mmHg 46%
    01:00 +20°C° 0 mm 1 mps 560 mmHg 47%
    02:00 +19°C° 0 mm 1 mps 559 mmHg 47%
    03:00 +19°C° 0 mm 1 mps 559 mmHg 47%
    04:00 +19°C° 0 mm 1 mps 559 mmHg 47%
    05:00 +19°C° 0 mm 1 mps 559 mmHg 47%
    06:00 +18°C° 0 mm 1 mps 559 mmHg 47%
    07:00 +20°C° 0 mm 1 mps 560 mmHg 41%
    08:00 +20°C° 0 mm 2 mps 561 mmHg 34%
    09:00 +23°C° 0 mm 2 mps 562 mmHg 28%
    10:00 +24°C° 0 mm 2 mps 562 mmHg 26%
    11:00 +25°C° 0 mm 3 mps 562 mmHg 23%
    12:00 +26°C° 0 mm 3 mps 562 mmHg 21%
    13:00 +26°C° 0 mm 4 mps 562 mmHg 22%
    14:00 +26°C° 0 mm 4 mps 562 mmHg 24%
    15:00 +26°C° 0 mm 5 mps 562 mmHg 25%
    16:00 +25°C° 0.2 mm 5 mps 561 mmHg 29%
    17:00 +23°C° 0.2 mm 4 mps 561 mmHg 34%
    18:00 +22°C° 0.2 mm 4 mps 561 mmHg 38%
    19:00 +22°C° 0.2 mm 3 mps 561 mmHg 42%
    20:00 +21°C° 0.2 mm 3 mps 560 mmHg 46%
    21:00 +20°C° 0.2 mm 2 mps 560 mmHg 50%
    22:00 +20°C° 0 mm 2 mps 560 mmHg 51%
    23:00 +20°C° 0 mm 1 mps 560 mmHg 52%

    29 June, Friday

    Time Temperature Precipitation Wind Pressure Humidity
    00:00 +20°C° 0 mm 1 mps 560 mmHg 53%
    01:00 +20°C° 0 mm 1 mps 559 mmHg 53%
    02:00 +20°C° 0 mm 1 mps 559 mmHg 53%
    03:00 +19°C° 0 mm 1 mps 559 mmHg 53%
    04:00 +19°C° 0 mm 1 mps 558 mmHg 51%
    05:00 +19°C° 0 mm 1 mps 558 mmHg 50%
    06:00 +17°C° 0 mm 0 mps 558 mmHg 49%
    07:00 +20°C° 0 mm 1 mps 559 mmHg 41%
    08:00 +22°C° 0 mm 1 mps 560 mmHg 33%
    09:00 +24°C° 0 mm 2 mps 561 mmHg 25%
    10:00 +25°C° 0 mm 2 mps 562 mmHg 23%
    11:00 +26°C° 0 mm 3 mps 562 mmHg 21%
    12:00 +27°C° 0 mm 4 mps 562 mmHg 19%
    13:00 +27°C° 0 mm 4 mps 562 mmHg 20%
    14:00 +27°C° 0 mm 4 mps 561 mmHg 20%
    15:00 +27°C° 0 mm 5 mps 561 mmHg 21%
    16:00 +26°C° 0 mm 4 mps 560 mmHg 25%
    17:00 +25°C° 0 mm 4 mps 560 mmHg 28%
    18:00 +23°C° 0 mm 4 mps 560 mmHg 32%
    19:00 +22°C° 0 mm 3 mps 559 mmHg 35%
    20:00 +21°C° 0 mm 2 mps 559 mmHg 39%
    21:00 +22°C° 0 mm 1 mps 559 mmHg 42%
    22:00 +22°C° 0 mm 1 mps 559 mmHg 42%
    23:00 +22°C° 0 mm 1 mps 559 mmHg 42%
    Show more